Hourly Weather Bolshie Karkaly

Today, 16 June, Wednesday

Time Temperature Precipitation Wind Pressure Humidity
00:00 +20°C° 0 mm 2 mps 730 mmHg 54%
01:00 +20°C° 0 mm 2 mps 730 mmHg 54%
02:00 +19°C° 0 mm 2 mps 730 mmHg 54%
03:00 +19°C° 0 mm 2 mps 730 mmHg 55%
04:00 +19°C° 0 mm 2 mps 729 mmHg 55%
05:00 +20°C° 0 mm 2 mps 729 mmHg 58%
06:00 +21°C° 0 mm 2 mps 729 mmHg 60%
07:00 +22°C° 0 mm 3 mps 729 mmHg 63%
08:00 +23°C° 0 mm 4 mps 730 mmHg 60%
09:00 +25°C° 0 mm 4 mps 730 mmHg 58%
10:00 +27°C° 0 mm 5 mps 730 mmHg 55%
11:00 +27°C° 0 mm 6 mps 730 mmHg 53%
12:00 +27°C° 0 mm 6 mps 730 mmHg 51%
13:00 +28°C° 0 mm 6 mps 729 mmHg 50%
14:00 +28°C° 0 mm 6 mps 729 mmHg 50%
15:00 +29°C° 0 mm 6 mps 729 mmHg 51%
16:00 +29°C° 0 mm 5 mps 729 mmHg 51%
17:00 +28°C° 0 mm 4 mps 728 mmHg 58%
18:00 +27°C° 0 mm 4 mps 728 mmHg 64%
19:00 +26°C° 0 mm 3 mps 728 mmHg 71%
20:00 +24°C° 0.5 mm 3 mps 728 mmHg 76%
21:00 +21°C° 0.5 mm 3 mps 728 mmHg 80%
22:00 +20°C° 0.5 mm 3 mps 728 mmHg 85%
23:00 +19°C° 0.2 mm 3 mps 727 mmHg 85%

Tomorrow, 17 June, Thursday

Time Temperature Precipitation Wind Pressure Humidity
00:00 +19°C° 0.2 mm 3 mps 727 mmHg 84%
01:00 +18°C° 0.2 mm 3 mps 727 mmHg 84%
02:00 +18°C° 0.2 mm 2 mps 727 mmHg 85%
03:00 +17°C° 0.2 mm 2 mps 727 mmHg 86%
04:00 +17°C° 0.2 mm 2 mps 727 mmHg 87%
05:00 +18°C° 0 mm 3 mps 727 mmHg 86%
06:00 +19°C° 0 mm 3 mps 727 mmHg 84%
07:00 +21°C° 0 mm 3 mps 727 mmHg 82%
08:00 +21°C° 0.3 mm 4 mps 727 mmHg 79%
09:00 +22°C° 0.3 mm 5 mps 727 mmHg 77%
10:00 +23°C° 0.3 mm 5 mps 727 mmHg 74%
11:00 +23°C° 0.5 mm 6 mps 727 mmHg 75%
12:00 +23°C° 0.5 mm 6 mps 728 mmHg 77%
13:00 +22°C° 0.5 mm 6 mps 728 mmHg 79%
14:00 +21°C° 0.1 mm 6 mps 728 mmHg 79%
15:00 +21°C° 0.1 mm 6 mps 729 mmHg 79%
16:00 +20°C° 0.1 mm 6 mps 729 mmHg 79%
17:00 +19°C° 0 mm 6 mps 729 mmHg 75%
18:00 +19°C° 0 mm 6 mps 730 mmHg 72%
19:00 +19°C° 0 mm 6 mps 730 mmHg 68%
20:00 +16°C° 0 mm 5 mps 730 mmHg 71%
21:00 +15°C° 0 mm 4 mps 730 mmHg 74%
22:00 +14°C° 0 mm 4 mps 731 mmHg 77%
23:00 +13°C° 0 mm 3 mps 731 mmHg 77%

Day after tomorrow, 18 June, Friday

Time Temperature Precipitation Wind Pressure Humidity
00:00 +12°C° 0 mm 3 mps 731 mmHg 78%
01:00 +12°C° 0 mm 3 mps 731 mmHg 79%
02:00 +11°C° 0 mm 3 mps 732 mmHg 80%
03:00 +11°C° 0 mm 3 mps 732 mmHg 80%
04:00 +10°C° 0 mm 3 mps 732 mmHg 81%
05:00 +11°C° 0 mm 4 mps 732 mmHg 77%
06:00 +12°C° 0 mm 4 mps 733 mmHg 73%
07:00 +13°C° 0 mm 5 mps 733 mmHg 70%
08:00 +15°C° 0 mm 5 mps 733 mmHg 66%
09:00 +16°C° 0 mm 6 mps 734 mmHg 63%
10:00 +17°C° 0 mm 6 mps 734 mmHg 60%
11:00 +17°C° 0 mm 6 mps 734 mmHg 59%
12:00 +17°C° 0 mm 6 mps 734 mmHg 57%
13:00 +17°C° 0 mm 6 mps 735 mmHg 55%
14:00 +17°C° 0 mm 6 mps 735 mmHg 57%
15:00 +17°C° 0 mm 6 mps 735 mmHg 59%
16:00 +17°C° 0 mm 6 mps 735 mmHg 61%
17:00 +16°C° 0 mm 6 mps 736 mmHg 65%
18:00 +15°C° 0 mm 6 mps 736 mmHg 68%
19:00 +15°C° 0 mm 6 mps 736 mmHg 72%
20:00 +13°C° 0 mm 5 mps 736 mmHg 76%
21:00 +12°C° 0 mm 3 mps 737 mmHg 81%
22:00 +10°C° 0 mm 2 mps 737 mmHg 85%
23:00 +10°C° 0 mm 2 mps 737 mmHg 86%

19 June, Saturday

Time Temperature Precipitation Wind Pressure Humidity
00:00 +10°C° 0 mm 2 mps 737 mmHg 86%
01:00 +9°C° 0 mm 2 mps 737 mmHg 87%
02:00 +9°C° 0 mm 2 mps 738 mmHg 84%
03:00 +9°C° 0 mm 2 mps 738 mmHg 81%
04:00 +11°C° 0 mm 1 mps 738 mmHg 79%
05:00 +12°C° 0 mm 1 mps 738 mmHg 74%
06:00 +13°C° 0 mm 1 mps 739 mmHg 70%
07:00 +15°C° 0 mm 1 mps 739 mmHg 65%
08:00 +16°C° 0 mm 2 mps 739 mmHg 61%
09:00 +18°C° 0 mm 2 mps 739 mmHg 57%
10:00 +19°C° 0 mm 3 mps 739 mmHg 53%
11:00 +20°C° 0 mm 3 mps 739 mmHg 52%
12:00 +21°C° 0 mm 3 mps 739 mmHg 51%
13:00 +21°C° 0 mm 4 mps 738 mmHg 50%
14:00 +22°C° 0 mm 4 mps 738 mmHg 51%
15:00 +22°C° 0 mm 4 mps 738 mmHg 52%
16:00 +22°C° 0 mm 5 mps 738 mmHg 52%
17:00 +22°C° 0 mm 4 mps 737 mmHg 58%
18:00 +21°C° 0 mm 4 mps 737 mmHg 64%
19:00 +20°C° 0 mm 4 mps 737 mmHg 70%
20:00 +19°C° 0 mm 4 mps 736 mmHg 74%
21:00 +18°C° 0 mm 4 mps 736 mmHg 79%
22:00 +17°C° 0 mm 4 mps 736 mmHg 83%
23:00 +17°C° 0 mm 4 mps 736 mmHg 85%

20 June, Sunday

Time Temperature Precipitation Wind Pressure Humidity
00:00 +15°C° 0 mm 5 mps 735 mmHg 87%
01:00 +15°C° 0 mm 5 mps 735 mmHg 89%
02:00 +15°C° 0 mm 5 mps 735 mmHg 91%
03:00 +15°C° 0 mm 5 mps 735 mmHg 93%
04:00 +15°C° 0 mm 5 mps 735 mmHg 94%
05:00 +16°C° 0 mm 5 mps 735 mmHg 91%
06:00 +19°C° 0 mm 5 mps 735 mmHg 87%
07:00 +20°C° 0 mm 5 mps 735 mmHg 84%
08:00 +21°C° 0.1 mm 5 mps 735 mmHg 78%
09:00 +23°C° 0.1 mm 6 mps 735 mmHg 73%
10:00 +24°C° 0.1 mm 6 mps 735 mmHg 68%
11:00 +24°C° 0.4 mm 6 mps 735 mmHg 67%
12:00 +26°C° 0.4 mm 7 mps 735 mmHg 66%
13:00 +26°C° 0.4 mm 7 mps 735 mmHg 65%
14:00 +26°C° 0.2 mm 7 mps 735 mmHg 65%
15:00 +26°C° 0.2 mm 7 mps 735 mmHg 64%
16:00 +26°C° 0.2 mm 6 mps 735 mmHg 64%
17:00 +23°C° 0 mm 6 mps 735 mmHg 65%
18:00 +22°C° 0 mm 5 mps 735 mmHg 65%
19:00 +21°C° 0 mm 4 mps 735 mmHg 66%
20:00 +19°C° 0 mm 4 mps 735 mmHg 69%
21:00 +17°C° 0 mm 3 mps 736 mmHg 72%
22:00 +15°C° 0 mm 2 mps 736 mmHg 75%
23:00 +14°C° 0 mm 2 mps 736 mmHg 75%

21 June, Monday

Time Temperature Precipitation Wind Pressure Humidity
00:00 +13°C° 0 mm 2 mps 736 mmHg 75%
01:00 +13°C° 0 mm 2 mps 736 mmHg 75%
02:00 +13°C° 0 mm 1 mps 736 mmHg 73%
03:00 +12°C° 0 mm 1 mps 736 mmHg 72%
04:00 +12°C° 0 mm 1 mps 736 mmHg 71%
05:00 +14°C° 0 mm 1 mps 736 mmHg 67%
06:00 +15°C° 0 mm 1 mps 736 mmHg 63%
07:00 +18°C° 0 mm 1 mps 737 mmHg 59%
08:00 +19°C° 0 mm 1 mps 737 mmHg 54%
09:00 +21°C° 0 mm 1 mps 737 mmHg 49%
10:00 +22°C° 0 mm 1 mps 737 mmHg 44%
11:00 +23°C° 0 mm 1 mps 736 mmHg 44%
12:00 +24°C° 0 mm 2 mps 736 mmHg 44%
13:00 +25°C° 0 mm 2 mps 736 mmHg 44%
14:00 +25°C° 0 mm 3 mps 736 mmHg 47%
15:00 +26°C° 0 mm 3 mps 735 mmHg 50%
16:00 +26°C° 0 mm 4 mps 735 mmHg 53%
17:00 +25°C° 0.4 mm 3 mps 734 mmHg 62%
18:00 +24°C° 0.4 mm 3 mps 734 mmHg 70%
19:00 +22°C° 0.4 mm 3 mps 734 mmHg 79%
20:00 +21°C° 1.1 mm 3 mps 733 mmHg 82%
21:00 +20°C° 1.1 mm 3 mps 733 mmHg 85%
22:00 +19°C° 1.1 mm 2 mps 733 mmHg 87%
23:00 +18°C° 0.2 mm 2 mps 732 mmHg 88%
Show more